EN

Hourly Weather Abutkovo

Today, 26 November, Thursday

Time Temperature Precipitation Wind Pressure Humidity
00:00 0°C° 0 mm 1 mps 745 mmHg 83%
01:00 -1°C° 0 mm 1 mps 746 mmHg 82%
02:00 -1°C° 0 mm 1 mps 746 mmHg 82%
03:00 -1°C° 0 mm 1 mps 745 mmHg 82%
04:00 -3°C° 0 mm 2 mps 745 mmHg 83%
05:00 -3°C° 0 mm 2 mps 745 mmHg 83%
06:00 -2°C° 0.1 mm 3 mps 744 mmHg 86%
07:00 -3°C° 0.1 mm 4 mps 744 mmHg 90%
08:00 -3°C° 0.1 mm 4 mps 744 mmHg 93%
09:00 -2°C° 0.5 mm 4 mps 744 mmHg 93%
10:00 -2°C° 0.5 mm 4 mps 743 mmHg 94%
11:00 -2°C° 0.5 mm 4 mps 743 mmHg 94%
12:00 -1°C° 0.2 mm 4 mps 742 mmHg 94%
13:00 -1°C° 0.2 mm 4 mps 742 mmHg 94%
14:00 0°C° 0.2 mm 4 mps 742 mmHg 95%
15:00 0°C° 0 mm 4 mps 741 mmHg 95%
16:00 +1°C° 0 mm 4 mps 741 mmHg 96%
17:00 +2°C° 0 mm 3 mps 741 mmHg 96%
18:00 +2°C° 0 mm 3 mps 740 mmHg 95%
19:00 +1°C° 0 mm 4 mps 740 mmHg 94%
20:00 0°C° 0 mm 4 mps 740 mmHg 93%
21:00 0°C° 0 mm 4 mps 739 mmHg 92%
22:00 -1°C° 0 mm 4 mps 739 mmHg 91%
23:00 -1°C° 0 mm 4 mps 739 mmHg 90%

Tomorrow, 27 November, Friday

Time Temperature Precipitation Wind Pressure Humidity
00:00 -1°C° 0 mm 4 mps 738 mmHg 90%
01:00 -2°C° 0 mm 4 mps 738 mmHg 90%
02:00 -2°C° 0 mm 4 mps 738 mmHg 90%
03:00 -2°C° 0 mm 4 mps 737 mmHg 90%
04:00 -2°C° 0 mm 4 mps 737 mmHg 89%
05:00 -2°C° 0 mm 4 mps 737 mmHg 89%
06:00 -2°C° 0 mm 4 mps 736 mmHg 90%
07:00 -2°C° 0 mm 4 mps 736 mmHg 91%
08:00 -2°C° 0 mm 4 mps 736 mmHg 92%
09:00 -2°C° 0.2 mm 4 mps 736 mmHg 93%
10:00 -2°C° 0.2 mm 4 mps 736 mmHg 95%
11:00 -1°C° 0.2 mm 3 mps 736 mmHg 96%
12:00 -1°C° 0.6 mm 3 mps 736 mmHg 97%
13:00 -1°C° 0.6 mm 3 mps 736 mmHg 97%
14:00 0°C° 0.6 mm 3 mps 736 mmHg 98%
15:00 0°C° 0.6 mm 3 mps 736 mmHg 98%
16:00 0°C° 0.6 mm 3 mps 736 mmHg 98%
17:00 +1°C° 0.6 mm 2 mps 736 mmHg 98%
18:00 +1°C° 0.3 mm 2 mps 736 mmHg 98%
19:00 +1°C° 0.3 mm 2 mps 737 mmHg 98%
20:00 +1°C° 0.3 mm 2 mps 737 mmHg 98%
21:00 +1°C° 0.2 mm 2 mps 737 mmHg 98%
22:00 +1°C° 0.2 mm 2 mps 738 mmHg 98%
23:00 +2°C° 0.2 mm 1 mps 738 mmHg 98%

Day after tomorrow, 28 November, Saturday

Time Temperature Precipitation Wind Pressure Humidity
00:00 +2°C° 0.1 mm 1 mps 739 mmHg 98%
01:00 +2°C° 0.1 mm 1 mps 739 mmHg 98%
02:00 +2°C° 0.1 mm 1 mps 740 mmHg 98%
03:00 +2°C° 0.1 mm 1 mps 740 mmHg 98%
04:00 +2°C° 0.1 mm 1 mps 741 mmHg 98%
05:00 +2°C° 0.1 mm 1 mps 741 mmHg 98%
06:00 +2°C° 0.1 mm 1 mps 741 mmHg 98%
07:00 +2°C° 0.1 mm 1 mps 742 mmHg 98%
08:00 +2°C° 0.1 mm 1 mps 743 mmHg 98%
09:00 +2°C° 0 mm 1 mps 743 mmHg 97%
10:00 +2°C° 0 mm 1 mps 744 mmHg 97%
11:00 +2°C° 0 mm 1 mps 744 mmHg 97%
12:00 +2°C° 0 mm 1 mps 745 mmHg 96%
13:00 +2°C° 0 mm 1 mps 745 mmHg 96%
14:00 +2°C° 0 mm 1 mps 746 mmHg 96%
15:00 +2°C° 0.1 mm 1 mps 746 mmHg 96%
16:00 +1°C° 0.1 mm 1 mps 746 mmHg 96%
17:00 +1°C° 0.1 mm 1 mps 747 mmHg 96%
18:00 +1°C° 0 mm 1 mps 747 mmHg 96%
19:00 +1°C° 0 mm 1 mps 748 mmHg 96%
20:00 0°C° 0 mm 1 mps 748 mmHg 96%
21:00 0°C° 0 mm 1 mps 749 mmHg 96%
22:00 0°C° 0 mm 1 mps 749 mmHg 97%
23:00 -1°C° 0 mm 0 mps 750 mmHg 97%

29 November, Sunday

Time Temperature Precipitation Wind Pressure Humidity
00:00 0°C° 0.1 mm 1 mps 750 mmHg 97%
01:00 0°C° 0.1 mm 1 mps 750 mmHg 97%
02:00 0°C° 0.1 mm 1 mps 750 mmHg 97%
03:00 0°C° 0 mm 1 mps 750 mmHg 97%
04:00 -2°C° 0 mm 2 mps 751 mmHg 96%
05:00 -2°C° 0 mm 2 mps 751 mmHg 95%
06:00 -2°C° 0 mm 2 mps 751 mmHg 95%
07:00 -2°C° 0 mm 2 mps 751 mmHg 95%
08:00 -2°C° 0 mm 2 mps 751 mmHg 95%
09:00 -2°C° 0 mm 3 mps 751 mmHg 92%
10:00 -1°C° 0 mm 3 mps 751 mmHg 90%
11:00 -2°C° 0 mm 4 mps 751 mmHg 87%
12:00 -2°C° 0.1 mm 4 mps 751 mmHg 90%
13:00 -2°C° 0.1 mm 4 mps 751 mmHg 93%
14:00 -1°C° 0.1 mm 4 mps 751 mmHg 96%
15:00 -1°C° 0.1 mm 4 mps 751 mmHg 96%
16:00 -1°C° 0.1 mm 4 mps 751 mmHg 96%
17:00 0°C° 0.1 mm 4 mps 751 mmHg 96%
18:00 -1°C° 0 mm 4 mps 751 mmHg 95%
19:00 -1°C° 0 mm 4 mps 750 mmHg 93%
20:00 -1°C° 0 mm 4 mps 750 mmHg 92%
21:00 -1°C° 0 mm 4 mps 750 mmHg 93%
22:00 0°C° 0 mm 4 mps 750 mmHg 93%
23:00 0°C° 0 mm 4 mps 750 mmHg 94%

30 November, Monday

Time Temperature Precipitation Wind Pressure Humidity
00:00 0°C° 0.1 mm 4 mps 750 mmHg 94%
01:00 0°C° 0.1 mm 4 mps 749 mmHg 95%
02:00 0°C° 0.1 mm 4 mps 749 mmHg 95%
03:00 0°C° 0 mm 4 mps 749 mmHg 95%
04:00 0°C° 0 mm 4 mps 748 mmHg 95%
05:00 0°C° 0 mm 5 mps 748 mmHg 94%
06:00 0°C° 0.2 mm 5 mps 748 mmHg 94%
07:00 +1°C° 0.2 mm 5 mps 748 mmHg 94%
08:00 +1°C° 0.2 mm 5 mps 748 mmHg 94%
09:00 +1°C° 0.6 mm 5 mps 748 mmHg 95%
10:00 +1°C° 0.6 mm 4 mps 748 mmHg 95%
11:00 +1°C° 0.6 mm 4 mps 748 mmHg 96%
12:00 +1°C° 0.4 mm 4 mps 747 mmHg 96%
13:00 0°C° 0.4 mm 4 mps 747 mmHg 96%
14:00 0°C° 0.4 mm 4 mps 747 mmHg 95%
15:00 0°C° 0 mm 4 mps 747 mmHg 92%
16:00 0°C° 0 mm 4 mps 747 mmHg 89%
17:00 0°C° 0 mm 4 mps 747 mmHg 86%
18:00 -1°C° 0 mm 4 mps 747 mmHg 86%
19:00 -1°C° 0 mm 4 mps 747 mmHg 85%
20:00 -2°C° 0 mm 4 mps 747 mmHg 84%
21:00 -2°C° 0 mm 4 mps 747 mmHg 86%
22:00 -2°C° 0 mm 5 mps 747 mmHg 87%
23:00 -2°C° 0 mm 5 mps 747 mmHg 88%

1 December, Tuesday

Time Temperature Precipitation Wind Pressure Humidity
00:00 -2°C° 0 mm 5 mps 748 mmHg 88%
01:00 -2°C° 0 mm 5 mps 748 mmHg 89%
02:00 -2°C° 0 mm 4 mps 748 mmHg 89%
03:00 -1°C° 0 mm 4 mps 748 mmHg 89%
04:00 -1°C° 0 mm 4 mps 749 mmHg 89%
05:00 -1°C° 0 mm 4 mps 749 mmHg 90%
06:00 -1°C° 0 mm 4 mps 749 mmHg 90%
07:00 -1°C° 0 mm 4 mps 750 mmHg 91%
08:00 -1°C° 0 mm 4 mps 750 mmHg 92%
09:00 -1°C° 0 mm 4 mps 750 mmHg 90%
10:00 -1°C° 0 mm 4 mps 750 mmHg 88%
11:00 -1°C° 0 mm 4 mps 750 mmHg 86%
12:00 -2°C° 0 mm 4 mps 750 mmHg 85%
13:00 -2°C° 0 mm 4 mps 750 mmHg 85%
14:00 -2°C° 0 mm 4 mps 750 mmHg 84%
15:00 -2°C° 0 mm 4 mps 750 mmHg 84%
16:00 -2°C° 0 mm 4 mps 750 mmHg 83%
17:00 -2°C° 0 mm 4 mps 750 mmHg 82%
18:00 -3°C° 0 mm 4 mps 750 mmHg 82%
19:00 -3°C° 0 mm 4 mps 750 mmHg 82%
20:00 -4°C° 0 mm 4 mps 750 mmHg 82%
21:00 -4°C° 0 mm 4 mps 750 mmHg 82%
22:00 -4°C° 0 mm 4 mps 750 mmHg 82%
23:00 -4°C° 0 mm 4 mps 750 mmHg 82%
Show more